STARLINK-11469, 62227

Orbit data source: Space-Track

STARLINK-11469, 62227 is a payload satellite owned by SpaceX/Seattle (US) in LEO that was launched on Thu, 05 Dec 2024 UTC via an FALCON 9 launch vehicle from the Air Force Western Test Range (AFWTR). Payload-class satellites include a variety of spacecraft equipped with specific instruments for various scientific and technological missions. These include communications satellites like Starlink; space stations such as the ISS; scientific satellites like the Hubble; Earth observation satellites from companies like Planet Labs, Umbra, and HawkEye 360; GPS; miniature CubeSats for education and research; and military/defense satellites.

Loading next visibility...
Identifier
62227, 2024-231K
Orbit
LEO
Last TLE update
3 hours ago
Origin
Manufacturer
SpaceX/Seattle
Mission
Operational Commercial Communications
Bus & Motor
STARLINK V2M, Unknown motor
Mass
730 kg wet, ~700 kg dry
Launch date (UTC)
2024-12-05 (7 months ago)
Launch vehicle
FALCON 9
Launch site
Air Force Western Test Range (AFWTR)
Object type
Payload
Rocket body
Debris
Shape & HBR
Box + 2 Pan, 29 m
Radar Cross Section
36.964 m², Large (>1 m²)

Expand to show TLE details & history

TLE from 3 hours ago
0 STARLINK-11469
1 62227U 24231K   25182.20554936  .00199881  00000-0  16091-2 0  9998
2 62227  53.1566 260.9463 0000455 122.8647 237.2415 15.69801611 33863
Epoch: 2025-07-01T04:55Z
TLE epoch observation values (Epoch: 2025-07-01T04:55:59.464Z)
Latitude
-0.00001°
Longitude
-92.55582°
Altitude
360.545 km
Speed
7.694 km/s
True Right ascension
17h 23m 47s
True Declination
0° 00' 00"
Sunlit
Object was in full shadow at epoch
Visualization orbit readout
Latitude
52.69991°
Longitude
-15.28345°
Altitude
365.491 km
Speed
7.697 km/s
Apparent Right ascension
04h 12m 57s
Apparent Declination
22° 29' 41"
Sunlit
Object is in daylight
Visualization observer readout
Local Sidereal Time
19:58:29
Azimuth
51.061° ENE
Elevation
-8.444°
Doppler factor
1
Orbital elements
Apogee altitude
360.032 km
Perigee altitude
359.419 km
Semi-major axis
6,737.863 km
Eccentricity
0.00005
Inclination
53.1566°
RAAN
260.9463°
Arg. of periapsis
122.8647°
True anomaly
Unknown
Mean anomaly
237.2415°
Eccentric anomaly
Unknown
Mean motion
3.92428 °/min
Orbital period
91.74 mins
BSTAR
0.0016091
Loading maneuver chart data...
Loading SW <> Apogee altitude chart data...
Loading historical data...
Loading historical data...
Loading historical data...
Loading historical data...
Loading historical data...
Loading historical data...
Loading historical data...

STARLINK-11469 Visibility forecast

Observer location: undefined°, undefined°

Span
Click to sort rows by Start time (UTC) header in descending order
Start Az.
Max El. time (UTC)
Max El. Az.
Max El.
End time (UTC)
End Az.
4 mins2025-07-01 14:35:23.125Z326.629° NNW2025-07-01 14:37:23.125Z39.292° NE36.018°2025-07-01 14:39:23.125Z106.698° ESE
|